Lady Lake, FL

10:17 AM EDT on July 24, 2016 (GMT -0400)
The Villages

Weather History for KVVG - January, 2013

Change the Weather History Date:

Saturday, January 5, 2013

  Actual Average (KLEE) Record (KLEE)
Temperature  
Mean Temperature 58 °F -  
Max Temperature 69 °F 69 °F 83 °F (1972)
Min Temperature 48 °F 48 °F 30 °F (1999)
Degree Days  
Heating Degree Days 6    
Growing Degree Days 8 (Base 50)    
Moisture  
Dew Point 51 °F    
Average Humidity 75    
Maximum Humidity 88    
Minimum Humidity 60    
Precipitation  
Precipitation 0.00 in - - ()
Sea Level Pressure  
Sea Level Pressure 30.28 in    
Wind  
Wind Speed 6 mph (NNE)    
Max Wind Speed 9 mph    
Max Gust Speed -    
Visibility 10 miles    
Events      
Averages and records for this station are not official NWS values.
T = Trace of Precipitation, MM = Missing Value Source: NWS Daily Summary

Daily Weather History Graph

Daily Weather History Graph

Search for Another Location

Airport or City:

Trip Planner

Search our weather history database for the weather conditions in past years. The results will help you decide how hot, cold, wet, or windy it might be!

Date:

Astronomy

Jan. 05, 2013 Rise Set
Actual Time 7:22 AM EST 5:44 PM EST
Civil Twilight 6:56 AM EST 6:10 PM EST
Nautical Twilight 6:27 AM EST 6:40 PM EST
Astronomical Twilight 5:58 AM EST 7:08 PM EST
Moon 12:43 AM EST (1/5) 12:19 PM EST (1/5)
Length of Visible Light 11h 14m
Length of Day
10h 22m
Last Quarter, 44% of the Moon is Illuminated
Jan 5
Last Quarter
Jan 11
New
Jan 18
First Quarter
Jan 26
Full
Feb 3
Last Quarter

Hourly Weather History & Observations

Time (EST) Temp. Dew Point Humidity Pressure Visibility Wind Dir Wind Speed Gust Speed Precip Events Conditions
12:15 AM 53.6 °F 48.2 °F 82% 30.31 in 8.0 mi NNE 9.2 mph - N/A   Unknown
12:35 AM 51.8 °F 48.2 °F 88% 30.30 in 9.0 mi North 9.2 mph - N/A   Unknown
12:55 AM 51.8 °F 48.2 °F 88% 30.30 in 9.0 mi NNE 5.8 mph - N/A   Unknown
1:15 AM 51.8 °F 48.2 °F 88% 30.30 in 9.0 mi North 6.9 mph - N/A   Unknown
1:35 AM 51.8 °F 48.2 °F 88% 30.30 in 9.0 mi North 5.8 mph - N/A   Unknown
1:55 AM 50.0 °F 46.4 °F 87% 30.30 in 9.0 mi North 5.8 mph - N/A   Unknown
2:15 AM 50.0 °F 46.4 °F 87% 30.29 in 9.0 mi NNE 5.8 mph - N/A   Unknown
2:35 AM 50.0 °F 46.4 °F 87% 30.29 in 8.0 mi North 4.6 mph - N/A   Unknown
2:55 AM 50.0 °F 46.4 °F 87% 30.29 in 10.0 mi North 5.8 mph - N/A   Unknown
3:15 AM 50.0 °F 46.4 °F 87% 30.28 in 9.0 mi North 5.8 mph - N/A   Unknown
3:35 AM 50.0 °F 46.4 °F 87% 30.28 in 10.0 mi NNE 5.8 mph - N/A   Unknown
3:55 AM 48.2 °F 44.6 °F 87% 30.28 in 10.0 mi NNE 4.6 mph - N/A   Unknown
4:35 AM 48.2 °F 44.6 °F 87% 30.29 in 10.0 mi North 4.6 mph - N/A   Unknown
4:55 AM 48.2 °F 44.6 °F 87% 30.29 in 8.0 mi NNE 5.8 mph - N/A   Unknown
5:15 AM 48.2 °F 44.6 °F 87% 30.29 in 8.0 mi North 4.6 mph - N/A   Unknown
5:35 AM 48.2 °F 44.6 °F 87% 30.29 in 9.0 mi North 5.8 mph - N/A   Unknown
5:55 AM 48.2 °F 44.6 °F 87% 30.30 in 9.0 mi Calm Calm - N/A   Unknown
6:15 AM 48.2 °F 44.6 °F 87% 30.29 in 9.0 mi North 5.8 mph - N/A   Unknown
6:35 AM 48.2 °F 44.6 °F 87% 30.31 in 8.0 mi NNE 3.5 mph - N/A   Unknown
6:55 AM 48.2 °F 44.6 °F 87% 30.31 in 10.0 mi North 5.8 mph - N/A   Unknown
8:15 AM 48.2 °F 42.8 °F 82% 30.33 in 9.0 mi NNE 8.1 mph - N/A   Unknown
8:55 AM 51.8 °F 44.6 °F 76% 30.34 in 9.0 mi NNE 6.9 mph - N/A   Unknown
9:15 AM 53.6 °F 44.6 °F 72% 30.34 in 10.0 mi NNE 6.9 mph - N/A   Unknown
9:35 AM 55.4 °F 46.4 °F 72% 30.33 in 10.0 mi NNE 8.1 mph - N/A   Unknown
9:55 AM 57.2 °F 46.4 °F 67% 30.33 in 9.0 mi ENE 8.1 mph - N/A   Unknown
10:15 AM 57.2 °F 48.2 °F 72% 30.32 in 9.0 mi ENE 8.1 mph - N/A   Unknown
10:35 AM 57.2 °F 48.2 °F 72% 30.32 in 10.0 mi NNE 8.1 mph - N/A   Unknown
10:55 AM 60.8 °F 50.0 °F 68% 30.32 in 10.0 mi ENE 8.1 mph - N/A   Unknown
11:15 AM 60.8 °F 50.0 °F 68% 30.31 in 9.0 mi NE 6.9 mph - N/A   Unknown
11:35 AM 60.8 °F 50.0 °F 68% 30.30 in 10.0 mi NE 6.9 mph - N/A   Unknown
11:55 AM 62.6 °F 51.8 °F 68% 30.29 in 9.0 mi NE 6.9 mph - N/A   Unknown
12:15 PM 62.6 °F 51.8 °F 68% 30.28 in 10.0 mi ENE 4.6 mph - N/A   Unknown
12:35 PM 64.4 °F 51.8 °F 64% 30.27 in 9.0 mi NE 4.6 mph - N/A   Unknown
12:55 PM 64.4 °F 53.6 °F 68% 30.26 in 10.0 mi North 6.9 mph - N/A   Unknown
1:15 PM 66.2 °F 53.6 °F 64% 30.25 in 10.0 mi NE 5.8 mph - N/A   Unknown
1:35 PM 66.2 °F 53.6 °F 64% 30.24 in 10.0 mi North 3.5 mph - N/A   Unknown
2:15 PM 69.8 °F 55.4 °F 60% 30.22 in 10.0 mi North 5.8 mph - N/A   Unknown
2:35 PM 69.8 °F 55.4 °F 60% 30.22 in 10.0 mi NNE 6.9 mph - N/A   Unknown
2:55 PM 69.8 °F 55.4 °F 60% 30.23 in 10.0 mi North 4.6 mph - N/A   Unknown
3:15 PM 69.8 °F 55.4 °F 60% 30.23 in 10.0 mi NE 4.6 mph - N/A   Unknown
3:35 PM 69.8 °F 57.2 °F 64% 30.23 in 10.0 mi NE 6.9 mph - N/A   Unknown
3:55 PM 69.8 °F 57.2 °F 64% 30.23 in 10.0 mi NE 8.1 mph - N/A   Unknown
4:15 PM 69.8 °F 55.4 °F 60% 30.23 in 10.0 mi NE 8.1 mph - N/A   Unknown
4:35 PM 69.8 °F 55.4 °F 60% 30.23 in 10.0 mi NE 6.9 mph - N/A   Unknown
4:55 PM 68.0 °F 55.4 °F 64% 30.23 in 9.0 mi NE 8.1 mph - N/A   Unknown
5:15 PM 66.2 °F 55.4 °F 68% 30.24 in 10.0 mi NNE 6.9 mph - N/A   Unknown
5:35 PM 66.2 °F 55.4 °F 68% 30.24 in 10.0 mi North 4.6 mph - N/A   Unknown
5:55 PM 66.2 °F 55.4 °F 68% 30.25 in 10.0 mi North 5.8 mph - N/A   Unknown
6:15 PM 64.4 °F 55.4 °F 73% 30.25 in 10.0 mi NNE 6.9 mph - N/A   Unknown
6:35 PM 64.4 °F 55.4 °F 73% 30.26 in 10.0 mi NNE 6.9 mph - N/A   Unknown
6:55 PM 64.4 °F 55.4 °F 73% 30.26 in 10.0 mi NNE 6.9 mph - N/A   Unknown
7:55 PM 64.4 °F 55.4 °F 73% 30.27 in 10.0 mi NNE 5.8 mph - N/A   Unknown
8:15 PM 64.4 °F 55.4 °F 73% 30.27 in 10.0 mi NE 6.9 mph - N/A   Unknown
8:35 PM 62.6 °F 55.4 °F 77% 30.27 in 10.0 mi Calm Calm - N/A   Unknown
8:55 PM 62.6 °F 55.4 °F 77% 30.27 in 10.0 mi NE 4.6 mph - N/A   Unknown
9:15 PM 62.6 °F 55.4 °F 77% 30.27 in 10.0 mi Calm Calm - N/A   Unknown
9:35 PM 62.6 °F 55.4 °F 77% 30.27 in 10.0 mi Calm Calm - N/A   Unknown
9:55 PM 62.6 °F 55.4 °F 77% 30.27 in 10.0 mi Calm Calm - N/A   Unknown
10:15 PM 62.6 °F 55.4 °F 77% 30.27 in 10.0 mi Calm Calm - N/A   Unknown
10:55 PM 62.6 °F 55.4 °F 77% 30.26 in 10.0 mi Calm Calm - N/A   Unknown
11:15 PM 62.6 °F 55.4 °F 77% 30.25 in 10.0 mi Calm Calm - N/A   Unknown
11:35 PM 62.6 °F 55.4 °F 77% 30.25 in 10.0 mi Calm Calm - N/A   Unknown
11:55 PM 60.8 °F 55.4 °F 82% 30.24 in 10.0 mi Calm Calm - N/A   Unknown